Regional Weather Roundup
Issued by NWS Huntsville, AL

Home | Current Version | Previous Version | Text Only | Print | Product List | Glossary On
Versions: 1 2 3 4 5 6 7 8 9 10 11 12 13 14 15 16 17 18 19 20 21 22 23 24 25 26 27 28 29 30 31 32 33 34 35 36 37 38 39 40 41 42 43 44 45 46 47 48 49 50
000
ASUS44 KHUN 230210
RWRHUN

WEATHER ROUNDUP FOR THE TENNESSEE VALLEY
NATIONAL WEATHER SERVICE HUNTSVILLE AL
800 PM CST MON DEC 22 2014

ALZ001>004-230300-
NORTHWEST ALABAMA

CITY           SKY/WX    TMP DP  RH WIND       PRES   REMARKS
COURTLAND HCN    N/A     52 N/A N/A SE10        N/A
RUSSELLVILLE     N/A     54 N/A N/A MISG        N/A
SHOALS AIRPORT LGT RAIN  54  51  90 SE13      29.74R
SHOALS TVA RES   N/A     52 N/A N/A MISG        N/A
$$

ALZ005>007-016-230300-
NORTH CENTRAL ALABAMA

CITY           SKY/WX    TMP DP  RH WIND       PRES   REMARKS
CULLMAN AG STN   N/A     50 N/A N/A SE6         N/A
DECATUR AP     CLOUDY    50  48  93 SE15      29.78R
HUNTSVILLE AP  CLOUDY    51  49  92 SE8       29.78R FOG
HUN NWS/UAH      N/A     48  46  93 SE6         N/A
MERIDIANVILLE  RAIN      46  43  87 SE12G18   29.79R
REDSTONE ARSN  CLOUDY    48  48 100 S14G21    29.78R
VINEMONT AP    DRIZZLE   49  48  97 SE8       29.80R
$$

ALZ008>010-230300-
NORTHEAST ALABAMA

CITY           SKY/WX    TMP DP  RH WIND       PRES   REMARKS
ALBERTVILLE    CLOUDY    46  46 100 SE10G16   29.79F
FORT PAYNE     LGT RAIN  45  41  87 N6        29.82F
SCOTTSBORO AP  LGT RAIN  48  46  93 W7        29.82S
VALLEY HEAD      N/A     45 N/A N/A MISG        N/A
$$

TNZ076-096-097-230300-
SOUTHEASTERN MIDDLE TENNESSEE

CITY           SKY/WX    TMP DP  RH WIND       PRES   REMARKS
TULLAHOMA      CLOUDY    48  46  93 SE13      29.77S
WINCHESTER     CLOUDY    48  46  93 SE16      29.77S
$$

...SURROUNDING SITES...

CITY           SKY/WX    TMP DP  RH WIND       PRES   REMARKS
ATLANTA        CLOUDY    44  42  93 E12G20    29.92S
ANNISTON       CLOUDY    49  46  90 E12       29.85S
BIRMINGHAM     CLOUDY    53  50  89 E5        29.83R
CHATTANOOGA    CLOUDY    48  45  89 S8        29.85F
CORINTH        CLOUDY    55  54  94 SE13      29.68S FOG
DALTON         RAIN      45  45 100 S5        29.87S
GADSDEN        CLOUDY    48  45  87 NE5       29.85R
GOLDEN TRNGL   CLOUDY    55  54  94 MISG      29.72  FOG
HALEYVILLE     CLOUDY    52  52 100 SE12G20   29.77R FOG
JACKSON TN     CLOUDY    56  52  86 S10G17    29.64F
LEWISBURG      CLOUDY    51  48  89 SE9       29.73S
MEMPHIS        LGT RAIN  57  54  89 W7        29.63S
MURFREESBORO   CLOUDY    52  48  86 S9        29.73F
NASHVILLE      CLOUDY    52  49  89 S15G21    29.72F
OXFORD MS      CLOUDY    54  54 100 SE10      29.68S FOG
ROME           CLOUDY    45  43  93 SE7       29.88S
SAVANNAH       CLOUDY    52  52 100 SE7       29.69S
TUPELO         CLOUDY    56  54  93 S9        29.70R FOG
TUSCALOOSA     CLOUDY    56  53  90 SE8       29.79R
$$

...GULF COAST WEATHER...

CITY           SKY/WX    TMP DP  RH WIND       PRES   REMARKS
GULFPORT       MOCLDY    65  64  97 S7        29.75R FOG
PASCAGOULA     MOCLDY    68  65  90 S5        29.77R
MOBILE         CLOUDY    65  65 100 S8        29.79R
GULF SHORES    PTCLDY    69  67  94 S7        29.79S
PENSACOLA      MOCLDY    68  66  93 S8        29.79S FOG
DESTIN         MOCLDY    62  61  96 CALM      29.82S
PANAMA CITY    FOG       66  66 100 SE3       29.85S VSB 1/2
APPALACHICOLA  PTCLDY    67  64  90 S7        29.86R
$$



USA.gov is the U.S. government's official web portal to all federal, state and local government web resources and services.